• In Austria
  • List of Countries
  • For 7 days
  • Water Temperature
  • Satellite Maps
  • Weather Map
  • News
  • Weather Widgets
  • user-avatar
    Login

    Hourly Weather Hurghada

    Today, 18 February, Sunday

    Time Temperature Precipitation Wind Pressure Humidity
    00:00 +7°C° 0 mm 3 mps 684 mmHg 53%
    01:00 +7°C° 0 mm 3 mps 684 mmHg 55%
    02:00 +7°C° 0 mm 3 mps 684 mmHg 56%
    03:00 +7°C° 0 mm 3 mps 684 mmHg 57%
    04:00 +5°C° 0 mm 3 mps 684 mmHg 59%
    05:00 +5°C° 0 mm 3 mps 684 mmHg 60%
    06:00 +7°C° 0 mm 3 mps 684 mmHg 58%
    07:00 +8°C° 0 mm 3 mps 685 mmHg 55%
    08:00 +9°C° 0 mm 3 mps 685 mmHg 52%
    09:00 +11°C° 0 mm 3 mps 685 mmHg 47%
    10:00 +12°C° 0 mm 3 mps 685 mmHg 41%
    11:00 +14°C° 0 mm 3 mps 686 mmHg 36%
    12:00 +16°C° 0 mm 3 mps 685 mmHg 33%
    13:00 +17°C° 0 mm 3 mps 685 mmHg 30%
    14:00 +18°C° 0 mm 4 mps 685 mmHg 31%
    15:00 +17°C° 0 mm 4 mps 685 mmHg 32%
    16:00 +17°C° 0 mm 4 mps 685 mmHg 33%
    17:00 +17°C° 0 mm 4 mps 685 mmHg 34%
    18:00 +16°C° 0 mm 3 mps 685 mmHg 40%
    19:00 +13°C° 0 mm 3 mps 684 mmHg 46%
    20:00 +13°C° 0 mm 2 mps 684 mmHg 52%
    21:00 +12°C° 0 mm 2 mps 684 mmHg 55%
    22:00 +12°C° 0 mm 2 mps 684 mmHg 58%
    23:00 +10°C° 0 mm 2 mps 684 mmHg 60%

    Tomorrow, 19 February, Monday

    Time Temperature Precipitation Wind Pressure Humidity
    00:00 +10°C° 0 mm 2 mps 684 mmHg 62%
    01:00 +9°C° 0 mm 2 mps 684 mmHg 64%
    02:00 +9°C° 0 mm 2 mps 683 mmHg 66%
    03:00 +9°C° 0 mm 2 mps 683 mmHg 68%
    04:00 +8°C° 0 mm 2 mps 683 mmHg 69%
    05:00 +8°C° 0 mm 2 mps 683 mmHg 71%
    06:00 +9°C° 0 mm 2 mps 683 mmHg 66%
    07:00 +10°C° 0 mm 2 mps 684 mmHg 61%
    08:00 +12°C° 0 mm 2 mps 684 mmHg 56%
    09:00 +14°C° 0 mm 2 mps 684 mmHg 48%
    10:00 +16°C° 0 mm 2 mps 684 mmHg 40%
    11:00 +17°C° 0 mm 2 mps 685 mmHg 32%
    12:00 +18°C° 0 mm 2 mps 684 mmHg 30%
    13:00 +19°C° 0 mm 2 mps 684 mmHg 27%
    14:00 +20°C° 0 mm 2 mps 684 mmHg 25%
    15:00 +19°C° 0 mm 2 mps 684 mmHg 27%
    16:00 +19°C° 0 mm 2 mps 684 mmHg 29%
    17:00 +18°C° 0 mm 2 mps 684 mmHg 30%
    18:00 +18°C° 0 mm 2 mps 683 mmHg 34%
    19:00 +17°C° 0 mm 2 mps 683 mmHg 38%
    20:00 +16°C° 0 mm 2 mps 683 mmHg 41%
    21:00 +15°C° 0 mm 2 mps 683 mmHg 42%
    22:00 +15°C° 0 mm 2 mps 683 mmHg 44%
    23:00 +14°C° 0 mm 1 mps 683 mmHg 45%

    Day after tomorrow, 20 February, Tuesday

    Time Temperature Precipitation Wind Pressure Humidity
    00:00 +14°C° 0 mm 2 mps 682 mmHg 44%
    01:00 +14°C° 0 mm 2 mps 682 mmHg 42%
    02:00 +14°C° 0 mm 2 mps 682 mmHg 41%
    03:00 +14°C° 0 mm 2 mps 682 mmHg 40%
    04:00 +14°C° 0 mm 2 mps 681 mmHg 38%
    05:00 +14°C° 0 mm 2 mps 681 mmHg 36%
    06:00 +15°C° 0 mm 2 mps 682 mmHg 34%
    07:00 +15°C° 0 mm 2 mps 682 mmHg 32%
    08:00 +16°C° 0 mm 2 mps 682 mmHg 30%
    09:00 +16°C° 0 mm 2 mps 682 mmHg 30%
    10:00 +17°C° 0 mm 3 mps 683 mmHg 30%
    11:00 +17°C° 0 mm 3 mps 683 mmHg 30%
    12:00 +17°C° 0.1 mm 3 mps 682 mmHg 31%
    13:00 +18°C° 0.1 mm 3 mps 682 mmHg 31%
    14:00 +18°C° 0.1 mm 3 mps 681 mmHg 32%
    15:00 +18°C° 0 mm 3 mps 681 mmHg 33%
    16:00 +18°C° 0 mm 3 mps 681 mmHg 33%
    17:00 +18°C° 0 mm 3 mps 680 mmHg 34%
    18:00 +17°C° 0 mm 2 mps 680 mmHg 37%
    19:00 +15°C° 0 mm 1 mps 680 mmHg 41%
    20:00 +14°C° 0 mm 1 mps 680 mmHg 45%
    21:00 +13°C° 0 mm 1 mps 680 mmHg 45%
    22:00 +13°C° 0 mm 1 mps 680 mmHg 45%
    23:00 +12°C° 0 mm 1 mps 680 mmHg 45%

    21 February, Wednesday

    Time Temperature Precipitation Wind Pressure Humidity
    00:00 +12°C° 0 mm 2 mps 680 mmHg 45%
    01:00 +12°C° 0 mm 2 mps 680 mmHg 44%
    02:00 +10°C° 0 mm 2 mps 679 mmHg 44%
    03:00 +10°C° 0 mm 2 mps 679 mmHg 44%
    04:00 +10°C° 0 mm 2 mps 679 mmHg 44%
    05:00 +10°C° 0 mm 1 mps 679 mmHg 44%
    06:00 +12°C° 0 mm 1 mps 680 mmHg 40%
    07:00 +13°C° 0 mm 1 mps 680 mmHg 36%
    08:00 +15°C° 0 mm 1 mps 681 mmHg 32%
    09:00 +16°C° 0 mm 1 mps 681 mmHg 29%
    10:00 +19°C° 0 mm 1 mps 681 mmHg 25%
    11:00 +20°C° 0 mm 1 mps 682 mmHg 22%
    12:00 +21°C° 0 mm 1 mps 681 mmHg 21%
    13:00 +21°C° 0 mm 2 mps 681 mmHg 19%
    14:00 +23°C° 0 mm 2 mps 680 mmHg 18%
    15:00 +21°C° 0 mm 2 mps 680 mmHg 20%
    16:00 +21°C° 0 mm 2 mps 680 mmHg 22%
    17:00 +20°C° 0 mm 2 mps 680 mmHg 24%
    18:00 +20°C° 0 mm 1 mps 680 mmHg 27%
    19:00 +20°C° 0 mm 1 mps 681 mmHg 29%
    20:00 +19°C° 0 mm 1 mps 681 mmHg 32%
    21:00 +18°C° 0 mm 1 mps 680 mmHg 35%
    22:00 +16°C° 0 mm 2 mps 680 mmHg 39%
    23:00 +16°C° 0 mm 2 mps 680 mmHg 42%

    22 February, Thursday

    Time Temperature Precipitation Wind Pressure Humidity
    00:00 +16°C° 0 mm 2 mps 679 mmHg 43%
    01:00 +14°C° 0 mm 3 mps 679 mmHg 44%
    02:00 +14°C° 0 mm 3 mps 679 mmHg 46%
    03:00 +16°C° 0 mm 3 mps 679 mmHg 45%
    04:00 +16°C° 0 mm 3 mps 679 mmHg 45%
    05:00 +16°C° 0 mm 3 mps 678 mmHg 45%
    06:00 +16°C° 0 mm 3 mps 679 mmHg 44%
    07:00 +17°C° 0 mm 3 mps 679 mmHg 44%
    08:00 +17°C° 0 mm 3 mps 679 mmHg 43%
    09:00 +19°C° 0 mm 4 mps 680 mmHg 39%
    10:00 +21°C° 0 mm 5 mps 680 mmHg 35%
    11:00 +22°C° 0 mm 6 mps 680 mmHg 31%
    12:00 +23°C° 0 mm 6 mps 680 mmHg 29%
    13:00 +23°C° 0 mm 6 mps 679 mmHg 28%
    14:00 +24°C° 0 mm 6 mps 679 mmHg 27%
    15:00 +24°C° 0 mm 6 mps 679 mmHg 27%
    16:00 +24°C° 0 mm 6 mps 679 mmHg 27%
    17:00 +24°C° 0 mm 6 mps 679 mmHg 28%
    18:00 +23°C° 0 mm 4 mps 679 mmHg 33%
    19:00 +21°C° 0 mm 3 mps 679 mmHg 38%
    20:00 +20°C° 0 mm 2 mps 679 mmHg 42%
    21:00 +19°C° 0 mm 2 mps 679 mmHg 42%
    22:00 +19°C° 0 mm 2 mps 679 mmHg 42%
    23:00 +20°C° 0 mm 1 mps 679 mmHg 42%

    23 February, Friday

    Time Temperature Precipitation Wind Pressure Humidity
    00:00 +19°C° 0 mm 1 mps 679 mmHg 40%
    01:00 +19°C° 0 mm 1 mps 679 mmHg 38%
    02:00 +17°C° 0 mm 2 mps 679 mmHg 35%
    03:00 +17°C° 0 mm 2 mps 679 mmHg 34%
    04:00 +16°C° 0 mm 3 mps 679 mmHg 33%
    05:00 +16°C° 0 mm 3 mps 679 mmHg 33%
    06:00 +15°C° 0 mm 4 mps 680 mmHg 34%
    07:00 +17°C° 0 mm 4 mps 681 mmHg 34%
    08:00 +17°C° 0 mm 4 mps 681 mmHg 35%
    09:00 +19°C° 0 mm 5 mps 681 mmHg 30%
    10:00 +20°C° 0 mm 5 mps 682 mmHg 24%
    11:00 +21°C° 0 mm 6 mps 682 mmHg 19%
    12:00 +22°C° 0 mm 6 mps 682 mmHg 17%
    13:00 +23°C° 0 mm 7 mps 682 mmHg 15%
    14:00 +23°C° 0 mm 8 mps 681 mmHg 13%
    15:00 +22°C° 0 mm 8 mps 681 mmHg 15%
    16:00 +21°C° 0 mm 8 mps 681 mmHg 17%
    17:00 +20°C° 0 mm 8 mps 681 mmHg 19%
    18:00 +19°C° 0 mm 6 mps 681 mmHg 23%
    19:00 +17°C° 0 mm 5 mps 682 mmHg 27%
    20:00 +15°C° 0 mm 4 mps 682 mmHg 31%
    21:00 +15°C° 0 mm 4 mps 682 mmHg 33%
    22:00 +14°C° 0 mm 3 mps 682 mmHg 35%
    23:00 +13°C° 0 mm 3 mps 682 mmHg 37%
    Show more